Voltar ao catálogo

ONEWEB-0463

AtivoComunicaçõesPO
NORAD 51650·PAYLOAD·🇬🇧 United Kingdom

Lançado Feb 10, 2022 de Guiana Space Centre

Loading…

Próximas Passagens (próximas 24 horas)

TLE

AtualizadoSource: CelesTrak SupGP

Época: Sep 14, 2026, 21:35 UTC

1 51650C 22012AE  26257.89947176 -.00002589  00000+0 -66774-2 0  2571
2 51650  87.9194 348.0626 0001747 105.9538 293.6655 13.17651105    13

Acompanhe ONEWEB-0463 em tempo real com AllMySat

Download on the App Store